Tracking 29892 objects as of 21-Nov-2024
HD Live streaming from Space Station
objects crossing your sky now

STARLINK-31497

Track STARLINK-31497 now!
10-day predictions
STARLINK-31497 is classified as:


NORAD ID: 60592
Int'l Code: 2024-150K
Perigee: 481.1 km
Apogee: 483.7 km
Inclination: 53.2 °
Period: 94.1 minutes
Semi major axis: 6853 km
RCS: Unknown
Launch date: August 20, 2024
Source: United States (US)
Launch site: AIR FORCE EASTERN TEST RANGE (AFETR)
Your satellite tracking list
Your tracking list is empty




NASA's NSSDC Master Catalog

Two Line Element Set (TLE):
1 60592U 24150K   24325.45872637  .00001133  00000-0  50409-4 0  9992
2 60592  53.1599 349.8436 0001876  96.8574 263.2640 15.30188370 15436
Source of the keplerian elements: AFSPC